www.pogodaiklimat.ru

Погода и климат >> Архив погоды >> Мали >> Nara


ПОГОДА в Nara

  • Прогноз погоды в Nara
  • Монитор погоды в Nara
  • Климат города

АРХИВ ПОГОДЫ в Nara

Время (UTC), дата Ветер
(напр.,м/с)
 
Видим.   Явления Облачность Т
(С)
Тd
(С)
f
(%)
Тe
(С)
Тes
(С)
Комфортность P
(гПа)
Po
(гПа)
Тmin
(С)
Tmax
(С)
R
(мм)
R24
(мм)
S
(см)
12 11.12 В 4 10 км 6/0
[Ci sp]
+28.4 -2.8 13 +26 +33 жарко 1014.3 984.1
15 11.12 В 2 10 км 8/0
[Ci sp]
+30.5 +1.7 16 +28 +35 жарко 1010.7 980.7
18 11.12 штиль 0 10 км 9/0
[Ci sp]
+27.5 +2.5 20 +26 +26 жарко 1010.8 980.5 +32.5
21 11.12 штиль 0 10 км 8/0
[Ci sp]
+22.5 +4.6 31 +23 +23 комфорт 1012.1 981.8
00 12.12 штиль 0 10 км 8/0
[Ci sp]
+19.5 +0.9 29 +20 +20 1011.8 981.7
03 12.12 штиль 0 10 км 6/0
[Ci sp]
+17.0 +1.5 35 +17 +17 1010.9 981.0
06 12.12 штиль 0 10 км 8/0
[Ci sp]
+13.0 +1.5 45 +13 +13 1011.2 980.9 +13.0
09 12.12 штиль 0 9000 м пыль 6/0
[Ci sp]
+18.5 +2.5 34 +19 +24 1013.7 983.2
12 12.12 штиль 0 10 км 6/0
[Ci sp]
+30.2 -1.6 13 +27 +43 жарко 1012.1 982.1
15 12.12 З 2 10 км 6/0
[Ci sp]
+32.8 0.0 12 +29 +36 жарко 1009.5 979.6
18 12.12 штиль 0 10 км 9/0
[Ci sp]
+30.0 +4.9 20 +28 +28 жарко 1010.2 980.0 +33.2
21 12.12 штиль 0 10 км 8/0
[Ci sp]
+22.0 +6.1 36 +23 +23 комфорт 1011.7 981.3
00 13.12 штиль 0 10 км 8/0
[Ci sp]
+18.3 +4.2 39 +18 +18 1011.6 981.6
03 13.12 штиль 0 10 км 8/0
[Ci sp]
+15.0 +4.4 49 +15 +15 1011.8 981.8
06 13.12 штиль 0 10 км 6/0
[Ci sp]
+14.0 +3.0 47 +14 +14 1012.0 981.7 +14.0
09 13.12 штиль 0 10 км 5/0
[Ci sp]
+18.5 +2.5 34 +19 +24 1012.9 982.4
12 13.12 СЗ 2 10 км 6/0
[Ci sp]
+28.5 -1.1 14 +26 +37 жарко 1011.2 981.1
15 13.12 СЗ 2 10 км 8/0
[Ci sp]
+31.0 -2.2 12 +28 +34 жарко 1009.7 979.6
18 13.12 СЗ 2 10 км 8/0
[Ci sp]
+28.0 -2.4 14 +25 +25 комфорт 1010.5 980.3 +31.5
21 13.12 С 1 10 км 8/0
[Ci sp]
+22.5 +2.4 27 +22 +22 комфорт 1013.2 982.6
00 14.12 С 2 10 км 8/0
[Ci sp]
+20.0 +1.8 30 +21 +21 комфорт 1012.8 982.7
03 14.12 СЗ 1 10 км 8/0
[Ci sp]
+17.5 +3.9 40 +19 +19 1012.0 982.0
06 14.12 штиль 0 10 км 9/0
[Ci sp]
+14.7 +4.8 51 +15 +15 1013.2 982.8 +14.7
09 14.12 СВ 3 10 км 6/0
[Ci sp]
+17.8 +3.5 39 +18 +21 1017.0 986.4
12 14.12 СВ 3 10 км 6/0
[Ci sp]
+23.8 +3.1 26 +23 +33 комфорт 1016.5 986.1
15 14.12 С 2 10 км 6/0
[Ci sp]
+27.5 +3.2 21 +26 +33 жарко 1013.3 983.1
18 14.12 штиль 0 10 км 8/0
[Ci sp]
+26.5 +4.0 23 +25 +25 комфорт 1014.2 983.7 +28.8
21 14.12 С 1 10 км 8/0
[Ci sp]
+25.0 +2.4 23 +24 +24 комфорт 1015.9 985.4
00 15.12 штиль 0 10 км 8/0
[Ci sp]
+19.2 +3.0 34 +19 +19 1017.0 986.6
03 15.12 СВ 2 10 км 8/0
[Ci sp]
+17.5 +0.7 32 +18 +18 1016.2 985.9
06 15.12 штиль 0 10 км 9/0
[Ci sp]
+15.3 +1.0 38 +15 +15 1016.5 986.0 +15.3
09 15.12 СВ 2 10 км 8/0
[Ci sp]
+18.0 +1.9 34 +19 +22 1017.5 986.9
12 15.12 СВ 3 10 км 8/0
[Ci sp]
+25.0 +0.9 21 +24 +33 комфорт 1016.0 985.7
15 15.12 СВ 2 10 км 8/0
[Ci sp]
+28.1 +1.6 18 +26 +33 жарко 1012.7 982.5
18 15.12 штиль 0 10 км 6/0
[Ci sp]
+27.0 +3.9 23 +26 +26 жарко 1012.9 982.6 +29.5
21 15.12 СВ 1 10 км 8/0
[Ci sp]
+23.4 +2.4 25 +23 +23 комфорт 1015.0 984.5
00 16.12 СВ 1 10 км 8/0
[Ci sp]
+21.0 +1.9 28 +22 +22 комфорт 1014.5 984.3
03 16.12 штиль 0 10 км 8/0
[Ci sp]
+19.0 +1.7 31 +19 +19 1013.7 983.6
06 16.12 СВ 1 10 км 9/0
[Ci sp]
+17.7 +0.4 31 +19 +19 1014.1 983.8 +17.7
09 16.12 СВ 2 9000 м пыль 9/0
[Ci sp]
+20.0 +0.1 26 +21 +24 комфорт 1018.1 987.7
12 16.12 СВ 2 10 км 9/0
[Ac As Ci sp]
+27.3 +1.4 19 +25 +34 комфорт 1015.3 985.2
15 16.12 СВ 2 10 км 9/0
[Ac As Ci sp]
+30.5 +1.7 16 +28 +33 жарко 1012.3 982.3
18 16.12 СВ 1 10 км 9/0
[Ac lent Ci sp]
+28.7 +2.6 19 +27 +27 жарко 1013.0 982.8 +30.7
21 16.12 СВ 1 10 км 9/0
[Ac lent Ci sp]
+24.1 +3.0 25 +23 +23 комфорт 1015.1 984.8
00 17.12 СВ 1 10 км 8/0
[Ci sp]
+22.0 +0.7 24 +21 +21 комфорт 1015.3 985.2
03 17.12 штиль 0 10 км 8/0
[Ci sp]
+19.5 +2.9 33 +20 +20 1013.5 983.6
06 17.12 штиль 0 10 км 8/0
[Ac lent Ci sp]
+16.6 +2.2 38 +17 +17 1014.2 984.0 +16.6
09 17.12 СВ 3 10 км 8/0
[Ci sp]
+17.5 +0.7 32 +18 +20 1015.7 985.2
12 17.12 СВ 3 10 км 8/0
[Ci sp]
+28.0 -2.0 14 +25 +35 комфорт 1015.1 985.1
15 17.12 С 2 10 км 9/0
[Ci sp]
+31.2 -2.1 12 +28 +34 жарко 1011.7 981.8
18 17.12 штиль 0 10 км 9/0
[Ci sp]
+29.5 +1.3 16 +27 +27 жарко 1012.2 982.0 +32.1
21 17.12 штиль 0 10 км 9/0
[Ci sp]
+24.0 +0.7 22 +23 +23 комфорт 1014.4 984.1
00 18.12 штиль 0 10 км 8/0
[Ci sp]
+18.6 +2.3 34 +19 +19 1014.5 984.3
03 18.12 С 1 10 км 8/0
[Ci sp]
+17.5 +2.1 36 +19 +19 1012.9 982.9
06 18.12 С 1 10 км 8/0
[Ci sp]
+15.5 0.0 35 +16 +16 1013.9 983.7 +15.5
09 18.12 СВ 3 10 км 6/0
[Ci sp]
+19.5 -0.6 26 +20 +23 1015.6 985.2

 

Местоположение метеостанции Nara (Мали): широта 15.17 долгота -7.28 высота над уровнем моря 265 м.

В архиве по умолчанию представлена погода в Nara за последнюю неделю. Архивные данные за месяц целиком и за предыдущие месяцы, начиная с января 2011 года, Вы можете получить, выбрав интересующий диапазон дат из раскрывающегося списка и нажав кнопку "Ввод!".

Внимание! Время в таблицах - всемирное. Для получения местного времени необходимо прибавить поправку, которая в Nara равна 0 ч.

Смотрите также архив погоды в соседних городах и на ближайших метеорологических станциях:

Погода в Nema (Мавритания) (159 км)
Погода в Nioro Du Sahel (Мали) (222 км)
Погода в Segou (Мали) (231 км)
Погода в Aioun el Atrouss (Мавритания) (301 км)
Погода в Bamako (Мали) (302 км)
Погода в Kita (Мали) (332 км)
Погода в San (Мали) (334 км)
Погода в Mopti (Мали) (349 км)
Погода в Yelimane (Мали) (352 км)
Погода в Koutiala (Мали) (367 км)

Пояснения к столбцам:

Ветер - указаны скорость ветра в м/с - средняя за 10 мин, порывы в срок и между сроками (в фигурных скобках) и направление, откуда дует ветер: С - северный, СВ - северо-восточный, В - восточный, ЮВ - юго-восточный, Ю - южный, ЮЗ - юго-западный, З - западный, СЗ - северо-западный.
Видимость - горизонтальная дальность видимости в метрах или километрах. При видимости от 1 до 10 км при отсутствии осадков обычно наблюдается дымка, при ухудшении видимости до 1 км и менее - туман. В сухую погоду видимость может ухудшаться дымом, пылью или мглою.
Явления - указаны атмосферные явления, наблюдавшиеся в срок или в последний час перед сроком; фигурными скобками обозначены явления, наблюдавшиеся между сроками (за 1-3 часа до срока); квадратными скобками обозначены град или гололедные отложения с указанием их диаметра в мм.
Облачность - указаны через наклонную черту общая и нижняя облачность в баллах и высота нижней границы облаков в метрах; квадратными скобками обозначены формы облаков: Ci - перистые, Cs - перисто-слоистые, Cc - перисто-кучевые, Ac - высококучевые, As - высокослоистые, Sc - слоисто-кучевые, Ns - слоисто-дождевые, Cu - кучевые, Cb - кучево-дождевые. Подробнее классификацию облаков см. в Атласе облаков (PDF).
T - Температура воздуха - температура, измеренная на высоте 2 м над землей.
Td - Температура точки росы - температура, при понижении до которой содержащийся в воздухе водяной пар достигнет насыщения.
f - Относительная влажность воздуха - влажноcть воздуха, измеренная на высоте 2 м над землей.
Te - Эффективная температура - температура, которую ощущает одетый по сезону человек в тени. Характеристика душности погоды. При расчете учитывается влияние влажности воздуха и скорости ветра на теплоощущения человека.
Tes - Эффективная температура на солнце - температура, которую ощущает человек, с поправкой на солнечный нагрев. Характеристика знойности погоды. Зависит от высоты солнца над горизонтом, облачности и скорости ветра. Ночью, в пасмурную погоду, а также при ветре 12 м/с и более поправка равна нулю.
P - Атмосферное давление - приведенное к уровню моря атмосферное давление.
Po - Атмосферное давление - измеренное на уровне метеостанции атмосферное давление.
Tmin - Минимальная температура - минимум температуры воздуха на высоте 2 м над землей.
Tmax - Максимальная температура - максимум температуры воздуха на высоте 2 м над землей.
R - Количество осадков - Количество выпавших осадков за период времени, мм. При наведении курсора мыши на число - период времени, за который выпало указанное количество осадков.
R24 - Количество осадков - Количество выпавших осадков за 24 часа, мм.
S - Снежный покров - Высота снежного покрова, см. При наведении курсора мыши на число - состояние снежного покрова и степень покрытия местности в баллах.